Regional Weather Roundup
Issued by NWS

Home | Current Version | Previous Version | Text Only | Print | Product List | Glossary Off
Versions: 1 2 3 4 5 6 7 8 9 10 11 12 13 14 15 16 17 18 19 20 21 22 23 24 25 26 27 28 29 30 31 32 33 34 35 36 37 38 39 40 41 42 43 44 45 46 47 48 49 50

000
ASUS43 KOAX 040002
RWRNE

WEATHER ROUNDUP FOR NEBRASKA
NATIONAL WEATHER SERVICE OMAHA NE
700 PM CDT SUN MAY 03 2015

NOTES: SATELLITE DATA IS BEING USED TO AUGMENT CLOUD COVER ABOVE
       12000 FEET.
       "FAIR" INDICATES FEW OR NO CLOUDS BELOW 12,000 FEET WITH NO
       SIGNIFICANT WEATHER AND/OR OBSTRUCTIONS TO VISIBILITY.

  * THESE STATIONS DO NOT REPORT WEATHER SUCH AS RAIN...SNOW OR FOG.

NEZ001>004-019>022-054>056-040100-
NEBRASKA PANHANDLE

CITY           SKY/WX    TMP DP  RH WIND       PRES   REMARKS
SCOTTSBLUFF    CLOUDY    68  38  33 E15G23    29.98S
6HR MIN TEMP:  67; 6HR MAX TEMP:  72;

ALLIANCE       CLOUDY    66  41  40 NE20      29.97R
6HR MIN TEMP:  66; 6HR MAX TEMP:  71;

CHADRON        MOSUNNY   68  40  35 E14       29.97R
6HR MIN TEMP:  65; 6HR MAX TEMP:  71;

KIMBALL        LGT RAIN  59  46  63 NW12G18   30.03R
SIDNEY         CLOUDY    67  42  40 NE10      29.99R
6HR MIN TEMP:  67; 6HR MAX TEMP:  73;

$$

NEZ057>060-069>072-079>082-040100-
SOUTHWEST NEBRASKA

CITY           SKY/WX    TMP DP  RH WIND       PRES   REMARKS
NORTH PLATTE   SUNNY     75  47  36 N17       29.87R
6HR MIN TEMP:  75; 6HR MAX TEMP:  80;

IMPERIAL       MOSUNNY   75  41  29 NE16      29.88R
6HR MIN TEMP:  75; 6HR MAX TEMP:  83;

MCCOOK         PTSUNNY   84  45  25 N18       29.80R
6HR MIN TEMP:  84; 6HR MAX TEMP:  90;

$$

NEZ005>010-023>029-035>040-094-040100-
NORTH CENTRAL NEBRASKA

CITY           SKY/WX    TMP DP  RH WIND       PRES   REMARKS
VALENTINE      SUNNY     70  37  29 NE20G28   29.94R
6HR MIN TEMP:  70; 6HR MAX TEMP:  74; 6HR PCP: TRACE;

AINSWORTH      SUNNY     70  38  30 N20G26    29.93R
BROKEN BOW     SUNNY     77  48  35 N18G31    29.83R
6HR MIN TEMP:  77; 6HR MAX TEMP:  86;

ORD            SUNNY     77  49  37 N26G35    29.79R
6HR MIN TEMP:  77; 6HR MAX TEMP:  85;

$$

NEZ041-046>049-061>064-073>077-083>087-040100-
SOUTH CENTRAL NEBRASKA

CITY           SKY/WX    TMP DP  RH WIND       PRES   REMARKS
GRAND ISLAND   SUNNY     84  52  33 N20       29.74R
6HR MIN TEMP:  83; 6HR MAX TEMP:  90;

AURORA         SUNNY     85  48  28 NE15      29.72R
HASTINGS       MOSUNNY   87  41  19 W7        29.72S
6HR MIN TEMP:  87; 6HR MAX TEMP:  91;

KEARNEY *      MOSUNNY   82  52  34 N23G30    29.77R
$$

NEZ011>018-030>034-042>045-040100-
NORTHEAST NEBRASKA

CITY           SKY/WX    TMP DP  RH WIND       PRES   REMARKS
NORFOLK        MOSUNNY   84  54  35 N30G37    29.73R
6HR MIN TEMP:  79; 6HR MAX TEMP:  89;

BLAIR          CLOUDY    76  56  50 SE3       29.74F
COLUMBUS *     MOSUNNY   79  57  47 SE9       29.72F
FREMONT        LGT RAIN  76  59  55 E6        29.73F
TEKAMAH        PTSUNNY   83  56  39 S10       29.72R
6HR MIN TEMP:  82; 6HR MAX TEMP:  89;

$$

NEZ050>053-065>068-078-088>093-040100-
SOUTHEAST NEBRASKA

CITY           SKY/WX    TMP DP  RH WIND       PRES   REMARKS
LINCOLN        TSTM      72  63  73 SE18      29.75R
6HR MIN TEMP:  70; 6HR MAX TEMP:  84; 6HR PCP:  0.28;

OMAHA EPPLEY   CLOUDY    77  59  53 S7        29.73R
6HR MIN TEMP:  77; 6HR MAX TEMP:  82;

FALLS CITY     MOSUNNY   82  58  43 S10       29.76S
6HR MIN TEMP:  77; 6HR MAX TEMP:  85;

PLATTSMOUTH    CLOUDY    77  57  49 SE17G28   29.74S
$$

NEZ044-045-051>053-067-040100-
OMAHA AREA

CITY           SKY/WX    TMP DP  RH WIND       PRES   REMARKS
OMAHA EPPLEY   CLOUDY    77  59  53 S7        29.73R
6HR MIN TEMP:  77; 6HR MAX TEMP:  82;

BLAIR          CLOUDY    76  56  50 SE3       29.74F
FREMONT        LGT RAIN  76  59  55 E6        29.73F
PLATTSMOUTH    CLOUDY    77  57  49 SE17G28   29.74S
$$



USA.gov is the U.S. government's official web portal to all federal, state and local government web resources and services.